sat.trackr.live / text

‹ back to catalog

STARLINK-34209

NORAD 64150 · 2025-112E

PAYLOAD ACTIVE UNKNOWN

§ Identity

Operator
Country
US
Launch date
2025-05-27
Launch site
AFWTR
Launch vehicle
Mass (kg)
RCS (m²)

Purposes: comms

External: N2YO · Heavens-Above · Gunter

§ Orbital elements

Epoch: 2026-09-20T20:52:32.468736Z

Period
93.91 min
Inclination
97.2834°
Eccentricity
0.0000856
Mean motion
15.33445261 rev/d
Perigee alt
465.0 km
Apogee alt
466.1 km
Semi-major
6,843.7 km
B*
2.8625e-4
RAAN
310.9116°
Arg perigee
93.1028°
Mean anomaly
267.0313°
Rev number
7,280

§ Raw data

STARLINK-342091 64150U 25112E   26263.86982024  .00009177  00000+0  28625-3 0  99942 64150  97.2834 310.9116 0000856  93.1028 267.0313 15.33445261 72807

JSON: /api/v1/satellites/64150 · /tle

For live sub-satellite position, see the globe view (requires WebGL).

§ Visibility from observer

Set your observer location to see the next 7 days of passes ≥ 10°. The values pass through the URL so the page stays shareable.

No JS? Fill the form by hand. The geolocation button needs JavaScript.